Regional Weather Roundup
Issued by NWS

Home | Current Version | Previous Version | Graphics & Text | Print | Product List | Glossary On
Versions: 1 2 3 4 5 6 7 8 9 10 11 12 13 14 15 16 17 18 19 20 21 22 23 24 25 26 27 28 29 30 31 32 33 34 35 36 37 38 39 40 41 42 43 44 45 46 47 48 49 50
000
ASUS43 KOAX 270610
RWRNE

WEATHER ROUNDUP FOR NEBRASKA
NATIONAL WEATHER SERVICE OMAHA NE
1200 AM CST THU NOV 27 2014

NOTES: SATELLITE DATA IS BEING USED TO AUGMENT CLOUD COVER ABOVE
       12000 FEET.
       "FAIR" INDICATES FEW OR NO CLOUDS BELOW 12,000 FEET WITH NO
       SIGNIFICANT WEATHER AND/OR OBSTRUCTIONS TO VISIBILITY.

  * THESE STATIONS DO NOT REPORT WEATHER SUCH AS RAIN...SNOW OR FOG.

NEZ001>004-019>022-054>056-270700-
NEBRASKA PANHANDLE

CITY           SKY/WX    TMP DP  RH WIND       PRES   REMARKS
SCOTTSBLUFF    CLOUDY    22  20  92 E9        30.24F WCI  12
6HR MIN TEMP:  16; 6HR MAX TEMP:  29; 6HR PCP:  0.01;

ALLIANCE       MOCLDY    23  21  92 S8        30.25S WCI  14
6HR MIN TEMP:  19; 6HR MAX TEMP:  29; 6HR PCP: TRACE;

CHADRON        CLOUDY   N/A N/A N/A CALM      30.26S
KIMBALL        PTCLDY    20  19  96 SW8       30.22S WCI  10
SIDNEY         PTCLDY    18  15  88 SW8       30.28R WCI   8
6HR MIN TEMP:  15; 6HR MAX TEMP:  27; 6HR PCP: TRACE;

$$

NEZ057>060-069>072-079>082-270700-
SOUTHWEST NEBRASKA

CITY           SKY/WX    TMP DP  RH WIND       PRES   REMARKS
NORTH PLATTE   CLOUDY    23  18  81 SE5       30.34F WCI  17
6HR MIN TEMP:  21; 6HR MAX TEMP:  30;

IMPERIAL       MOCLDY    28  26  92 SE3       30.35R
6HR MIN TEMP:  28; 6HR MAX TEMP:  31; 6HR PCP: TRACE;

LEXINGTON      CLOUDY    25  19  77 SE3       30.40F
MCCOOK         CLOUDY    30  20  66 CALM      30.38R
6HR MIN TEMP:  29; 6HR MAX TEMP:  35;

OGALLALA       FOG       24  23  97 W3        30.32F VSB 1/2
$$

NEZ005>010-023>029-035>040-094-270700-
NORTH CENTRAL NEBRASKA

CITY           SKY/WX    TMP DP  RH WIND       PRES   REMARKS
VALENTINE      MOCLDY    22  18  85 E5        30.35R WCI  16
6HR MIN TEMP:  22; 6HR MAX TEMP:  26;

AINSWORTH      CLOUDY    21  17  84 S6        30.36S WCI  13
BROKEN BOW     CLOUDY    20  15  81 CALM      30.38R
6HR MIN TEMP:  16; 6HR MAX TEMP:  27;

O`NEILL        CLOUDY    18  12  80 CALM      30.44R
ORD            PTCLDY    17  13  84 CALM      30.42R
6HR MIN TEMP:  12; 6HR MAX TEMP:  25;

THEDFORD       CLOUDY    27  20  77 S3        30.35R
$$

NEZ041-046>049-061>064-073>077-083>087-270700-
SOUTH CENTRAL NEBRASKA

CITY           SKY/WX    TMP DP  RH WIND       PRES   REMARKS
GRAND ISLAND   CLEAR     17  13  84 NW3       30.46R
6HR MIN TEMP:  17; 6HR MAX TEMP:  26;

AURORA         CLEAR     18  13  80 NW7       30.46R WCI   8
HASTINGS       CLEAR     20  14  77 NW3       30.43R
6HR MIN TEMP:  18; 6HR MAX TEMP:  28;

HEBRON         CLEAR     19  14  80 NW3       30.47R
HOLDREGE       CLOUDY    24  17  75 E5        30.41R WCI  18
KEARNEY *      PTCLDY    18  12  79 NE6       30.41F WCI   9
YORK           CLEAR     18  14  86 NW7       30.46R WCI   8
$$

NEZ011>018-030>034-042>045-270700-
NORTHEAST NEBRASKA

CITY           SKY/WX    TMP DP  RH WIND       PRES   REMARKS
NORFOLK        MOCLDY    14   8  77 NW6       30.47R WCI   5
6HR MIN TEMP:  13; 6HR MAX TEMP:  21;

ALBION         PTCLDY    17  10  77 NW5       30.46R WCI   9
BLAIR          CLOUDY    20  14  79 NW12      30.44R WCI   7
COLUMBUS *     CLEAR     14   7  73 NW3       30.47S
FREMONT        CLEAR     17  12  80 NW7       30.46R WCI   8
TEKAMAH        CLOUDY    19  12  74 NW8       30.48R WCI   9
6HR MIN TEMP:  19; 6HR MAX TEMP:  24;

WAYNE          CLOUDY    14   9  78 N9        30.48R WCI   2
$$

NEZ050>053-065>068-078-088>093-270700-
SOUTHEAST NEBRASKA

CITY           SKY/WX    TMP DP  RH WIND       PRES   REMARKS
LINCOLN        MOCLDY    19  13  77 NW5       30.50R WCI  12
6HR MIN TEMP:  17; 6HR MAX TEMP:  27;

OMAHA EPPLEY   CLOUDY    21  15  78 N17       30.47R WCI   7
6HR MIN TEMP:  21; 6HR MAX TEMP:  26;

BEATRICE       CLEAR     17  13  87 N8        30.47R WCI   6
FALLS CITY     CLOUDY    24  18  77 N10       30.45R WCI  14
6HR MIN TEMP:  24; 6HR MAX TEMP:  29;

NEBRASKA CITY  CLOUDY    24  18  77 NW7       30.45R WCI  16
PLATTSMOUTH    MOCLDY    22  17  80 NW9       30.44R WCI  12
$$

NEZ044-045-051>053-067-270700-
OMAHA AREA

CITY           SKY/WX    TMP DP  RH WIND       PRES   REMARKS
OMAHA EPPLEY   CLOUDY    21  15  78 N17       30.47R WCI   7
6HR MIN TEMP:  21; 6HR MAX TEMP:  26;

BLAIR          CLOUDY    20  14  79 NW12      30.44R WCI   7
FREMONT        CLEAR     17  12  80 NW7       30.46R WCI   8
MILLARD        CLOUDY    22  16  76 NW12G17   30.48R WCI  11
OFFUTT AFB     CLOUDY    23  18  80 NW9       30.46R WCI  13
PLATTSMOUTH    MOCLDY    22  17  80 NW9       30.44R WCI  12
WAHOO          FAIR      17  12  78 N9        30.47R WCI   6
$$



USA.gov is the U.S. government's official web portal to all federal, state and local government web resources and services.